Year,Month,Day,Hour,Minute,Value (Times are PST for barometer in hPa)
2010,04,02,00,00,1004.74
2010,04,02,00,01,1004.74
2010,04,02,00,02,1004.74
2010,04,02,00,03,1004.74
2010,04,02,00,04,1004.74
2010,04,02,00,05,1004.74
2010,04,02,00,06,1004.74
2010,04,02,00,07,1004.74
2010,04,02,00,08,1004.74
2010,04,02,00,09,1004.74
2010,04,02,00,10,1004.74
2010,04,02,00,11,1004.74
2010,04,02,00,12,1004.74
2010,04,02,00,13,1004.74
2010,04,02,00,14,1004.74
2010,04,02,00,15,1004.23
2010,04,02,00,16,1004.23
2010,04,02,00,17,1004.23
2010,04,02,00,18,1004.23
2010,04,02,00,19,1004.23
2010,04,02,00,20,1004.23
2010,04,02,00,21,1004.23
2010,04,02,00,22,1004.23
2010,04,02,00,23,1004.23
2010,04,02,00,24,1004.23
2010,04,02,00,25,1004.23
2010,04,02,00,26,1004.23
2010,04,02,00,27,1004.23
2010,04,02,00,28,1004.23
2010,04,02,00,29,1004.23
2010,04,02,00,30,1003.83
2010,04,02,00,31,1003.83
2010,04,02,00,32,1003.83
2010,04,02,00,33,1003.83
2010,04,02,00,34,1003.83
2010,04,02,00,35,1003.83
2010,04,02,00,36,1003.83
2010,04,02,00,37,1003.83
2010,04,02,00,38,1003.83
2010,04,02,00,39,1003.83
2010,04,02,00,40,1003.83
2010,04,02,00,41,1003.83
2010,04,02,00,42,1003.83
2010,04,02,00,43,1003.83
2010,04,02,00,44,1003.83
2010,04,02,00,45,1003.42
2010,04,02,00,46,1003.42
2010,04,02,00,47,1003.42
2010,04,02,00,48,1003.42
2010,04,02,00,49,1003.42
2010,04,02,00,50,1003.42
2010,04,02,00,51,1003.42
2010,04,02,00,52,1003.42
2010,04,02,00,53,1003.42
2010,04,02,00,54,1003.42
2010,04,02,00,55,1003.42
2010,04,02,00,56,1003.42
2010,04,02,00,57,1003.42
2010,04,02,00,58,1003.42
2010,04,02,00,59,1003.42
2010,04,02,01,00,1002.91
2010,04,02,01,01,1002.91
2010,04,02,01,02,1002.91
2010,04,02,01,03,1002.91
2010,04,02,01,04,1002.91
2010,04,02,01,05,1002.91
2010,04,02,01,06,1002.91
2010,04,02,01,07,1002.91
2010,04,02,01,08,1002.91
2010,04,02,01,09,1002.91
2010,04,02,01,10,1002.91
2010,04,02,01,11,1002.91
2010,04,02,01,12,1002.91
2010,04,02,01,13,1002.91
2010,04,02,01,14,1002.91
2010,04,02,01,15,1002.74
2010,04,02,01,16,1002.74
2010,04,02,01,17,1002.74
2010,04,02,01,18,1002.74
2010,04,02,01,19,1002.74
2010,04,02,01,20,1002.74
2010,04,02,01,21,1002.74
2010,04,02,01,22,1002.74
2010,04,02,01,23,1002.74
2010,04,02,01,24,1002.74
2010,04,02,01,25,1002.74
2010,04,02,01,26,1002.74
2010,04,02,01,27,1002.74
2010,04,02,01,28,1002.74
2010,04,02,01,29,1002.74
2010,04,02,01,30,1002.37
2010,04,02,01,31,1002.37
2010,04,02,01,32,1002.37
2010,04,02,01,33,1002.37
2010,04,02,01,34,1002.37
2010,04,02,01,35,1002.37
2010,04,02,01,36,1002.37
2010,04,02,01,37,1002.37
2010,04,02,01,38,1002.37
2010,04,02,01,39,1002.37
2010,04,02,01,40,1002.37
2010,04,02,01,41,1002.37
2010,04,02,01,42,1002.37
2010,04,02,01,43,1002.37
2010,04,02,01,44,1002.37
2010,04,02,01,45,1002.13
2010,04,02,01,46,1002.13
2010,04,02,01,47,1002.13
2010,04,02,01,48,1002.13
2010,04,02,01,49,1002.13
2010,04,02,01,50,1002.13
2010,04,02,01,51,1002.13
2010,04,02,01,52,1002.13
2010,04,02,01,53,1002.13
2010,04,02,01,54,1002.13
2010,04,02,01,55,1002.13
2010,04,02,01,56,1002.13
2010,04,02,01,57,1002.13
2010,04,02,01,58,1002.13
2010,04,02,01,59,1002.13
2010,04,02,02,00,1001.73
2010,04,02,02,01,1001.73
2010,04,02,02,02,1001.73
2010,04,02,02,03,1001.73
2010,04,02,02,04,1001.73
2010,04,02,02,05,1001.73
2010,04,02,02,06,1001.73
2010,04,02,02,07,1001.73
2010,04,02,02,08,1001.73
2010,04,02,02,09,1001.73
2010,04,02,02,10,1001.73
2010,04,02,02,11,1001.73
2010,04,02,02,12,1001.73
2010,04,02,02,13,1001.73
2010,04,02,02,14,1001.73
2010,04,02,02,15,1001.25
2010,04,02,02,16,1001.25
2010,04,02,02,17,1001.25
2010,04,02,02,18,1001.25
2010,04,02,02,19,1001.25
2010,04,02,02,20,1001.25
2010,04,02,02,21,1001.25
2010,04,02,02,22,1001.25
2010,04,02,02,23,1001.25
2010,04,02,02,24,1001.25
2010,04,02,02,25,1001.25
2010,04,02,02,26,1001.25
2010,04,02,02,27,1001.25
2010,04,02,02,28,1001.25
2010,04,02,02,29,1001.25
2010,04,02,02,30,1000.71
2010,04,02,02,31,1000.71
2010,04,02,02,32,1000.71
2010,04,02,02,33,1000.71
2010,04,02,02,34,1000.71
2010,04,02,02,35,1000.71
2010,04,02,02,36,1000.71
2010,04,02,02,37,1000.71
2010,04,02,02,38,1000.71
2010,04,02,02,39,1000.71
2010,04,02,02,40,1000.71
2010,04,02,02,41,1000.71
2010,04,02,02,42,1000.71
2010,04,02,02,43,1000.71
2010,04,02,02,44,1000.71
2010,04,02,02,45,1000.24
2010,04,02,02,46,1000.24
2010,04,02,02,47,1000.24
2010,04,02,02,48,1000.24
2010,04,02,02,49,1000.24
2010,04,02,02,50,1000.24
2010,04,02,02,51,1000.24
2010,04,02,02,52,1000.24
2010,04,02,02,53,1000.24
2010,04,02,02,54,1000.24
2010,04,02,02,55,1000.24
2010,04,02,02,56,1000.24
2010,04,02,02,57,1000.24
2010,04,02,02,58,1000.24
2010,04,02,02,59,1000.24
2010,04,02,03,00,999.76
2010,04,02,03,01,999.76
2010,04,02,03,02,999.76
2010,04,02,03,03,999.76
2010,04,02,03,04,999.76
2010,04,02,03,05,999.76
2010,04,02,03,06,999.76
2010,04,02,03,07,999.76
2010,04,02,03,08,999.76
2010,04,02,03,09,999.76
2010,04,02,03,10,999.76
2010,04,02,03,11,999.76
2010,04,02,03,12,999.76
2010,04,02,03,13,999.76
2010,04,02,03,14,999.76
2010,04,02,03,15,999.43
2010,04,02,03,16,999.43
2010,04,02,03,17,999.43
2010,04,02,03,18,999.43
2010,04,02,03,19,999.43
2010,04,02,03,20,999.43
2010,04,02,03,21,999.43
2010,04,02,03,22,999.43
2010,04,02,03,23,999.43
2010,04,02,03,24,999.43
2010,04,02,03,25,999.43
2010,04,02,03,26,999.43
2010,04,02,03,27,999.43
2010,04,02,03,28,999.43
2010,04,02,03,29,999.43
2010,04,02,03,30,999.19
2010,04,02,03,31,999.19
2010,04,02,03,32,999.19
2010,04,02,03,33,999.19
2010,04,02,03,34,999.19
2010,04,02,03,35,999.19
2010,04,02,03,36,999.19
2010,04,02,03,37,999.19
2010,04,02,03,38,999.19
2010,04,02,03,39,999.19
2010,04,02,03,40,999.19
2010,04,02,03,41,999.19
2010,04,02,03,42,999.19
2010,04,02,03,43,999.19
2010,04,02,03,44,999.19
2010,04,02,03,45,999.02
2010,04,02,03,46,999.02
2010,04,02,03,47,999.02
2010,04,02,03,48,999.02
2010,04,02,03,49,999.02
2010,04,02,03,50,999.02
2010,04,02,03,51,999.02
2010,04,02,03,52,999.02
2010,04,02,03,53,999.02
2010,04,02,03,54,999.02
2010,04,02,03,55,999.02
2010,04,02,03,56,999.02
2010,04,02,03,57,999.02
2010,04,02,03,58,999.02
2010,04,02,03,59,999.02
2010,04,02,04,00,999.09
2010,04,02,04,01,999.09
2010,04,02,04,02,999.09
2010,04,02,04,03,999.09
2010,04,02,04,04,999.09
2010,04,02,04,05,999.09
2010,04,02,04,06,999.09
2010,04,02,04,07,999.09
2010,04,02,04,08,999.09
2010,04,02,04,09,999.09
2010,04,02,04,10,999.09
2010,04,02,04,11,999.09
2010,04,02,04,12,999.09
2010,04,02,04,13,999.09
2010,04,02,04,14,999.09
2010,04,02,04,15,998.65
2010,04,02,04,16,998.65
2010,04,02,04,17,998.65
2010,04,02,04,18,998.65
2010,04,02,04,19,998.65
2010,04,02,04,20,998.65
2010,04,02,04,21,998.65
2010,04,02,04,22,998.65
2010,04,02,04,23,998.65
2010,04,02,04,24,998.65
2010,04,02,04,25,998.65
2010,04,02,04,26,998.65
2010,04,02,04,27,998.65
2010,04,02,04,28,998.65
2010,04,02,04,29,998.65
2010,04,02,04,30,998.61
2010,04,02,04,31,998.61
2010,04,02,04,32,998.61
2010,04,02,04,33,998.61
2010,04,02,04,34,998.61
2010,04,02,04,35,998.61
2010,04,02,04,36,998.61
2010,04,02,04,37,998.61
2010,04,02,04,38,998.61
2010,04,02,04,39,998.61
2010,04,02,04,40,998.61
2010,04,02,04,41,998.61
2010,04,02,04,42,998.61
2010,04,02,04,43,998.61
2010,04,02,04,44,998.61
2010,04,02,04,45,998.17
2010,04,02,04,46,998.17
2010,04,02,04,47,998.17
2010,04,02,04,48,998.17
2010,04,02,04,49,998.17
2010,04,02,04,50,998.17
2010,04,02,04,51,998.17
2010,04,02,04,52,998.17
2010,04,02,04,53,998.17
2010,04,02,04,54,998.17
2010,04,02,04,55,998.17
2010,04,02,04,56,998.17
2010,04,02,04,57,998.17
2010,04,02,04,58,998.17
2010,04,02,04,59,998.17
2010,04,02,05,00,997.73
2010,04,02,05,01,997.73
2010,04,02,05,02,997.73
2010,04,02,05,03,997.73
2010,04,02,05,04,997.73
2010,04,02,05,05,997.73
2010,04,02,05,06,997.73
2010,04,02,05,07,997.73
2010,04,02,05,08,997.73
2010,04,02,05,09,997.73
2010,04,02,05,10,997.73
2010,04,02,05,11,997.73
2010,04,02,05,12,997.73
2010,04,02,05,13,997.73
2010,04,02,05,14,997.73
2010,04,02,05,15,997.09
2010,04,02,05,16,997.09
2010,04,02,05,17,997.09
2010,04,02,05,18,997.09
2010,04,02,05,19,997.09
2010,04,02,05,20,997.09
2010,04,02,05,21,997.09
2010,04,02,05,22,997.09
2010,04,02,05,23,997.09
2010,04,02,05,24,997.09
2010,04,02,05,25,997.09
2010,04,02,05,26,997.09
2010,04,02,05,27,997.09
2010,04,02,05,28,997.09
2010,04,02,05,29,997.09
2010,04,02,05,30,996.48
2010,04,02,05,31,996.48
2010,04,02,05,32,996.48
2010,04,02,05,33,996.48
2010,04,02,05,34,996.48
2010,04,02,05,35,996.48
2010,04,02,05,36,996.48
2010,04,02,05,37,996.48
2010,04,02,05,38,996.48
2010,04,02,05,39,996.48
2010,04,02,05,40,996.48
2010,04,02,05,41,996.48
2010,04,02,05,42,996.48
2010,04,02,05,43,996.48
2010,04,02,05,44,996.48
2010,04,02,05,45,995.53
2010,04,02,05,46,995.53
2010,04,02,05,47,995.53
2010,04,02,05,48,995.53
2010,04,02,05,49,995.53
2010,04,02,05,50,995.53
2010,04,02,05,51,995.53
2010,04,02,05,52,995.53
2010,04,02,05,53,995.53
2010,04,02,05,54,995.53
2010,04,02,05,55,995.53
2010,04,02,05,56,995.53
2010,04,02,05,57,995.53
2010,04,02,05,58,995.53
2010,04,02,05,59,995.53
2010,04,02,06,00,994.45
2010,04,02,06,01,994.45
2010,04,02,06,02,994.45
2010,04,02,06,03,994.45
2010,04,02,06,04,994.45
2010,04,02,06,05,994.45
2010,04,02,06,06,994.45
2010,04,02,06,07,994.45
2010,04,02,06,08,994.45
2010,04,02,06,09,994.45
2010,04,02,06,10,994.45
2010,04,02,06,11,994.45
2010,04,02,06,12,994.45
2010,04,02,06,13,994.45
2010,04,02,06,14,994.45
2010,04,02,06,15,993.77
2010,04,02,06,16,993.77
2010,04,02,06,17,993.77
2010,04,02,06,18,993.77
2010,04,02,06,19,993.77
2010,04,02,06,20,993.77
2010,04,02,06,21,993.77
2010,04,02,06,22,993.77
2010,04,02,06,23,993.77
2010,04,02,06,24,993.77
2010,04,02,06,25,993.77
2010,04,02,06,26,993.77
2010,04,02,06,27,993.77
2010,04,02,06,28,993.77
2010,04,02,06,29,993.77
2010,04,02,06,30,992.99
2010,04,02,06,31,992.99
2010,04,02,06,32,992.99
2010,04,02,06,33,992.99
2010,04,02,06,34,992.99
2010,04,02,06,35,992.99
2010,04,02,06,36,992.99
2010,04,02,06,37,992.99
2010,04,02,06,38,992.99
2010,04,02,06,39,992.99
2010,04,02,06,40,992.99
2010,04,02,06,41,992.99
2010,04,02,06,42,992.99
2010,04,02,06,43,992.99
2010,04,02,06,44,992.99
2010,04,02,06,45,992.92
2010,04,02,06,46,992.92
2010,04,02,06,47,992.92
2010,04,02,06,48,992.92
2010,04,02,06,49,992.92
2010,04,02,06,50,992.92
2010,04,02,06,51,992.92
2010,04,02,06,52,992.92
2010,04,02,06,53,992.92
2010,04,02,06,54,992.92
2010,04,02,06,55,992.92
2010,04,02,06,56,992.92
2010,04,02,06,57,992.92
2010,04,02,06,58,992.92
2010,04,02,06,59,992.92
2010,04,02,07,00,992.89
2010,04,02,07,01,992.89
2010,04,02,07,02,992.89
2010,04,02,07,03,992.89
2010,04,02,07,04,992.89
2010,04,02,07,05,992.89
2010,04,02,07,06,992.89
2010,04,02,07,07,992.89
2010,04,02,07,08,992.89
2010,04,02,07,09,992.89
2010,04,02,07,10,992.89
2010,04,02,07,11,992.89
2010,04,02,07,12,992.89
2010,04,02,07,13,992.89
2010,04,02,07,14,992.89
2010,04,02,07,15,991.98
2010,04,02,07,16,991.98
2010,04,02,07,17,991.98
2010,04,02,07,18,991.98
2010,04,02,07,19,991.98
2010,04,02,07,20,991.98
2010,04,02,07,21,991.98
2010,04,02,07,22,991.98
2010,04,02,07,23,991.98
2010,04,02,07,24,991.98
2010,04,02,07,25,991.98
2010,04,02,07,26,991.98
2010,04,02,07,27,991.98
2010,04,02,07,28,991.98
2010,04,02,07,29,991.94
2010,04,02,07,30,991.23
2010,04,02,07,31,991.23
2010,04,02,07,32,991.23
2010,04,02,07,33,991.23
2010,04,02,07,34,991.23
2010,04,02,07,35,991.23
2010,04,02,07,36,991.23
2010,04,02,07,37,991.23
2010,04,02,07,38,991.23
2010,04,02,07,39,991.23
2010,04,02,07,40,991.23
2010,04,02,07,41,991.23
2010,04,02,07,42,991.23
2010,04,02,07,43,991.23
2010,04,02,07,44,991.22
2010,04,02,07,45,990.96
2010,04,02,07,46,990.96
2010,04,02,07,47,990.96
2010,04,02,07,48,990.96
2010,04,02,07,49,990.96
2010,04,02,07,50,990.96
2010,04,02,07,51,990.96
2010,04,02,07,52,990.96
2010,04,02,07,53,990.96
2010,04,02,07,54,990.96
2010,04,02,07,55,990.96
2010,04,02,07,56,990.96
2010,04,02,07,57,990.96
2010,04,02,07,58,990.96
2010,04,02,07,59,990.96
2010,04,02,08,00,990.32
2010,04,02,08,01,990.32
2010,04,02,08,02,990.32
2010,04,02,08,03,990.32
2010,04,02,08,04,990.32
2010,04,02,08,05,990.32
2010,04,02,08,06,990.32
2010,04,02,08,07,990.32
2010,04,02,08,08,990.32
2010,04,02,08,09,990.32
2010,04,02,08,10,990.32
2010,04,02,08,11,990.32
2010,04,02,08,12,990.32
2010,04,02,08,13,990.32
2010,04,02,08,14,990.32
2010,04,02,08,15,989.47
2010,04,02,08,16,989.47
2010,04,02,08,17,989.47
2010,04,02,08,18,989.47
2010,04,02,08,19,989.47
2010,04,02,08,20,989.47
2010,04,02,08,21,989.47
2010,04,02,08,22,989.47
2010,04,02,08,23,989.47
2010,04,02,08,24,989.47
2010,04,02,08,25,989.47
2010,04,02,08,26,989.47
2010,04,02,08,27,989.47
2010,04,02,08,28,989.47
2010,04,02,08,29,989.47
2010,04,02,08,30,988.86
2010,04,02,08,31,988.86
2010,04,02,08,32,988.86
2010,04,02,08,33,988.86
2010,04,02,08,34,988.86
2010,04,02,08,35,988.86
2010,04,02,08,36,988.86
2010,04,02,08,37,988.86
2010,04,02,08,38,988.86
2010,04,02,08,39,988.86
2010,04,02,08,40,988.86
2010,04,02,08,41,988.86
2010,04,02,08,42,988.86
2010,04,02,08,43,988.86
2010,04,02,08,44,988.86
2010,04,02,08,45,987.91
2010,04,02,08,46,987.91
2010,04,02,08,47,987.91
2010,04,02,08,48,987.91
2010,04,02,08,49,987.91
2010,04,02,08,50,987.91
2010,04,02,08,51,987.91
2010,04,02,08,52,987.91
2010,04,02,08,53,987.91
2010,04,02,08,54,987.91
2010,04,02,08,55,987.91
2010,04,02,08,56,987.91
2010,04,02,08,57,987.91
2010,04,02,08,58,987.91
2010,04,02,08,59,987.91
2010,04,02,09,00,987.13
2010,04,02,09,01,987.13
2010,04,02,09,02,987.13
2010,04,02,09,03,987.13
2010,04,02,09,04,987.13
2010,04,02,09,05,987.13
2010,04,02,09,06,987.13
2010,04,02,09,07,987.13
2010,04,02,09,08,987.13
2010,04,02,09,09,987.13
2010,04,02,09,10,987.13
2010,04,02,09,11,987.13
2010,04,02,09,12,987.13
2010,04,02,09,13,987.13
2010,04,02,09,14,987.13
2010,04,02,09,15,986.62
2010,04,02,09,16,986.62
2010,04,02,09,17,986.62
2010,04,02,09,18,986.62
2010,04,02,09,19,986.62
2010,04,02,09,20,986.62
2010,04,02,09,21,986.62
2010,04,02,09,22,986.62
2010,04,02,09,23,986.62
2010,04,02,09,24,986.62
2010,04,02,09,25,986.62
2010,04,02,09,26,986.62
2010,04,02,09,27,986.62
2010,04,02,09,28,986.62
2010,04,02,09,29,986.62
2010,04,02,09,30,985.71
2010,04,02,09,31,985.71
2010,04,02,09,32,985.71
2010,04,02,09,33,985.71
2010,04,02,09,34,985.71
2010,04,02,09,35,985.71
2010,04,02,09,36,985.71
2010,04,02,09,37,985.71
2010,04,02,09,38,985.71
2010,04,02,09,39,985.71
2010,04,02,09,40,985.71
2010,04,02,09,41,985.71
2010,04,02,09,42,985.71
2010,04,02,09,43,985.71
2010,04,02,09,44,985.71
2010,04,02,09,45,985.13
2010,04,02,09,46,985.13
2010,04,02,09,47,985.13
2010,04,02,09,48,985.13
2010,04,02,09,49,985.13
2010,04,02,09,50,985.13
2010,04,02,09,51,985.13
2010,04,02,09,52,985.13
2010,04,02,09,53,985.13
2010,04,02,09,54,985.13
2010,04,02,09,55,985.13
2010,04,02,09,56,985.13
2010,04,02,09,57,985.13
2010,04,02,09,58,985.13
2010,04,02,09,59,985.13
2010,04,02,10,00,984.53
2010,04,02,10,01,984.53
2010,04,02,10,02,984.53
2010,04,02,10,03,984.53
2010,04,02,10,04,984.53
2010,04,02,10,05,984.53
2010,04,02,10,06,984.53
2010,04,02,10,07,984.53
2010,04,02,10,08,984.53
2010,04,02,10,09,984.53
2010,04,02,10,10,984.53
2010,04,02,10,11,984.53
2010,04,02,10,12,984.53
2010,04,02,10,13,984.53
2010,04,02,10,14,984.53
2010,04,02,10,15,983.75
2010,04,02,10,16,983.75
2010,04,02,10,17,983.75
2010,04,02,10,18,983.75
2010,04,02,10,19,983.75
2010,04,02,10,20,983.75
2010,04,02,10,21,983.75
2010,04,02,10,22,983.75
2010,04,02,10,23,983.75
2010,04,02,10,24,983.75
2010,04,02,10,25,983.75
2010,04,02,10,26,983.75
2010,04,02,10,27,983.75
2010,04,02,10,28,983.75
2010,04,02,10,29,983.75
2010,04,02,10,30,984.05
2010,04,02,10,31,984.05
2010,04,02,10,32,984.05
2010,04,02,10,33,984.05
2010,04,02,10,34,984.05
2010,04,02,10,35,984.05
2010,04,02,10,36,984.05
2010,04,02,10,37,984.05
2010,04,02,10,38,984.05
2010,04,02,10,39,984.05
2010,04,02,10,40,984.05
2010,04,02,10,41,984.05
2010,04,02,10,42,984.05
2010,04,02,10,43,984.05
2010,04,02,10,44,984.05
2010,04,02,10,45,984.05
2010,04,02,10,46,984.05
2010,04,02,10,47,984.05
2010,04,02,10,48,984.05
2010,04,02,10,49,984.05
2010,04,02,10,50,984.05
2010,04,02,10,51,984.05
2010,04,02,10,52,984.05
2010,04,02,10,53,984.05
2010,04,02,10,54,984.05
2010,04,02,10,55,984.05
2010,04,02,10,56,984.05
2010,04,02,10,57,984.05
2010,04,02,10,58,984.05
2010,04,02,10,59,984.05
2010,04,02,11,00,983.60
2010,04,02,11,01,983.58
2010,04,02,11,02,983.58
2010,04,02,11,03,983.58
2010,04,02,11,04,983.58
2010,04,02,11,05,983.58
2010,04,02,11,06,983.58
2010,04,02,11,07,983.58
2010,04,02,11,08,983.58
2010,04,02,11,09,983.58
2010,04,02,11,10,983.58
2010,04,02,11,11,983.58
2010,04,02,11,12,983.58
2010,04,02,11,13,983.58
2010,04,02,11,14,983.58
2010,04,02,11,15,983.17
2010,04,02,11,16,983.17
2010,04,02,11,17,983.17
2010,04,02,11,18,983.17
2010,04,02,11,19,983.17
2010,04,02,11,20,983.17
2010,04,02,11,21,983.17
2010,04,02,11,22,983.17
2010,04,02,11,23,983.17
2010,04,02,11,24,983.17
2010,04,02,11,25,983.17
2010,04,02,11,26,983.17
2010,04,02,11,27,983.17
2010,04,02,11,28,983.17
2010,04,02,11,29,983.17
2010,04,02,11,30,983.78
2010,04,02,11,31,983.81
2010,04,02,11,32,983.81
2010,04,02,11,33,983.81
2010,04,02,11,34,983.81
2010,04,02,11,35,983.81
2010,04,02,11,36,983.81
2010,04,02,11,37,983.81
2010,04,02,11,38,983.81
2010,04,02,11,39,983.81
2010,04,02,11,40,983.81
2010,04,02,11,41,983.81
2010,04,02,11,42,983.81
2010,04,02,11,43,983.81
2010,04,02,11,44,983.81
2010,04,02,11,45,983.92
2010,04,02,11,46,983.92
2010,04,02,11,47,983.92
2010,04,02,11,48,983.92
2010,04,02,11,49,983.92
2010,04,02,11,50,983.92
2010,04,02,11,51,983.92
2010,04,02,11,52,983.92
2010,04,02,11,53,983.92
2010,04,02,11,54,983.92
2010,04,02,11,55,983.92
2010,04,02,11,56,983.92
2010,04,02,11,57,983.92
2010,04,02,11,58,983.92
2010,04,02,11,59,983.92
2010,04,02,12,00,983.61
2010,04,02,12,01,983.61
2010,04,02,12,02,983.61
2010,04,02,12,03,983.61
2010,04,02,12,04,983.61
2010,04,02,12,05,983.61
2010,04,02,12,06,983.61
2010,04,02,12,07,983.61
2010,04,02,12,08,983.61
2010,04,02,12,09,983.61
2010,04,02,12,10,983.61
2010,04,02,12,11,983.61
2010,04,02,12,12,983.61
2010,04,02,12,13,983.61
2010,04,02,12,14,983.61
2010,04,02,12,15,984.19
2010,04,02,12,16,984.19
2010,04,02,12,17,984.19
2010,04,02,12,18,984.19
2010,04,02,12,19,984.19
2010,04,02,12,20,984.19
2010,04,02,12,21,984.19
2010,04,02,12,22,984.19
2010,04,02,12,23,984.19
2010,04,02,12,24,984.19
2010,04,02,12,25,984.19
2010,04,02,12,26,984.19
2010,04,02,12,27,984.19
2010,04,02,12,28,984.19
2010,04,02,12,29,984.19
2010,04,02,12,30,983.85
2010,04,02,12,31,983.85
2010,04,02,12,32,983.85
2010,04,02,12,33,983.85
2010,04,02,12,34,983.85
2010,04,02,12,35,983.85
2010,04,02,12,36,983.85
2010,04,02,12,37,983.85
2010,04,02,12,38,983.85
2010,04,02,12,39,983.85
2010,04,02,12,40,983.85
2010,04,02,12,41,983.85
2010,04,02,12,42,983.85
2010,04,02,12,43,983.85
2010,04,02,12,44,983.85
2010,04,02,12,45,983.78
2010,04,02,12,46,983.78
2010,04,02,12,47,983.78
2010,04,02,12,48,983.78
2010,04,02,12,49,983.78
2010,04,02,12,50,983.78
2010,04,02,12,51,983.78
2010,04,02,12,52,983.78
2010,04,02,12,53,983.78
2010,04,02,12,54,983.78
2010,04,02,12,55,983.78
2010,04,02,12,56,983.78
2010,04,02,12,57,983.78
2010,04,02,12,58,983.78
2010,04,02,12,59,983.78
2010,04,02,13,00,983.91
2010,04,02,13,01,983.92
2010,04,02,13,02,983.92
2010,04,02,13,03,983.92
2010,04,02,13,04,983.92
2010,04,02,13,05,983.92
2010,04,02,13,06,983.92
2010,04,02,13,07,983.92
2010,04,02,13,08,983.92
2010,04,02,13,09,983.92
2010,04,02,13,10,983.92
2010,04,02,13,11,983.92
2010,04,02,13,12,983.92
2010,04,02,13,13,983.92
2010,04,02,13,14,983.92
2010,04,02,13,15,984.18
2010,04,02,13,16,984.19
2010,04,02,13,17,984.19
2010,04,02,13,18,984.19
2010,04,02,13,19,984.19
2010,04,02,13,20,984.19
2010,04,02,13,21,984.19
2010,04,02,13,22,984.19
2010,04,02,13,23,984.19
2010,04,02,13,24,984.19
2010,04,02,13,25,984.19
2010,04,02,13,26,984.19
2010,04,02,13,27,984.19
2010,04,02,13,28,984.19
2010,04,02,13,29,984.19
2010,04,02,13,30,984.36
2010,04,02,13,31,984.36
2010,04,02,13,32,984.36
2010,04,02,13,33,984.36
2010,04,02,13,34,984.36
2010,04,02,13,35,984.36
2010,04,02,13,36,984.36
2010,04,02,13,37,984.36
2010,04,02,13,38,984.36
2010,04,02,13,39,984.36
2010,04,02,13,40,984.36
2010,04,02,13,41,984.36
2010,04,02,13,42,984.36
2010,04,02,13,43,984.36
2010,04,02,13,44,984.36
2010,04,02,13,45,984.59
2010,04,02,13,46,984.59
2010,04,02,13,47,984.59
2010,04,02,13,48,984.59
2010,04,02,13,49,984.59
2010,04,02,13,50,984.59
2010,04,02,13,51,984.59
2010,04,02,13,52,984.59
2010,04,02,13,53,984.59
2010,04,02,13,54,984.59
2010,04,02,13,55,984.59
2010,04,02,13,56,984.59
2010,04,02,13,57,984.59
2010,04,02,13,58,984.59
2010,04,02,13,59,984.59
2010,04,02,14,00,984.49
2010,04,02,14,01,984.49
2010,04,02,14,02,984.49
2010,04,02,14,03,984.49
2010,04,02,14,04,984.49
2010,04,02,14,05,984.49
2010,04,02,14,06,984.49
2010,04,02,14,07,984.49
2010,04,02,14,08,984.49
2010,04,02,14,09,984.49
2010,04,02,14,10,984.49
2010,04,02,14,11,984.49
2010,04,02,14,12,984.49
2010,04,02,14,13,984.49
2010,04,02,14,14,984.49
2010,04,02,14,15,984.73
2010,04,02,14,16,984.73
2010,04,02,14,17,984.73
2010,04,02,14,18,984.73
2010,04,02,14,19,984.73
2010,04,02,14,20,984.73
2010,04,02,14,21,984.73
2010,04,02,14,22,984.73
2010,04,02,14,23,984.73
2010,04,02,14,24,984.73
2010,04,02,14,25,984.73
2010,04,02,14,26,984.73
2010,04,02,14,27,984.73
2010,04,02,14,28,984.73
2010,04,02,14,29,984.73
2010,04,02,14,30,985.15
2010,04,02,14,31,985.17
2010,04,02,14,32,985.17
2010,04,02,14,33,985.17
2010,04,02,14,34,985.17
2010,04,02,14,35,985.17
2010,04,02,14,36,985.17
2010,04,02,14,37,985.17
2010,04,02,14,38,985.17
2010,04,02,14,39,985.17
2010,04,02,14,40,985.17
2010,04,02,14,41,985.17
2010,04,02,14,42,985.17
2010,04,02,14,43,985.17
2010,04,02,14,44,985.17
2010,04,02,14,45,985.61
2010,04,02,14,46,985.61
2010,04,02,14,47,985.61
2010,04,02,14,48,985.61
2010,04,02,14,49,985.61
2010,04,02,14,50,985.61
2010,04,02,14,51,985.61
2010,04,02,14,52,985.61
2010,04,02,14,53,985.61
2010,04,02,14,54,985.61
2010,04,02,14,55,985.61
2010,04,02,14,56,985.61
2010,04,02,14,57,985.61
2010,04,02,14,58,985.61
2010,04,02,14,59,985.61
2010,04,02,15,00,985.68
2010,04,02,15,01,985.68
2010,04,02,15,02,985.68
2010,04,02,15,03,985.68
2010,04,02,15,04,985.68
2010,04,02,15,05,985.68
2010,04,02,15,06,985.68
2010,04,02,15,07,985.68
2010,04,02,15,08,985.68
2010,04,02,15,09,985.68
2010,04,02,15,10,985.68
2010,04,02,15,11,985.68
2010,04,02,15,12,985.68
2010,04,02,15,13,985.68
2010,04,02,15,14,985.68
2010,04,02,15,15,986.18
2010,04,02,15,16,986.18
2010,04,02,15,17,986.18
2010,04,02,15,18,986.18
2010,04,02,15,19,986.18
2010,04,02,15,20,986.18
2010,04,02,15,21,986.18
2010,04,02,15,22,986.18
2010,04,02,15,23,986.18
2010,04,02,15,24,986.18
2010,04,02,15,25,986.18
2010,04,02,15,26,986.18
2010,04,02,15,27,986.18
2010,04,02,15,28,986.18
2010,04,02,15,29,986.18
2010,04,02,15,30,986.73
2010,04,02,15,31,986.73
2010,04,02,15,32,986.73
2010,04,02,15,33,986.73
2010,04,02,15,34,986.73
2010,04,02,15,35,986.73
2010,04,02,15,36,986.73
2010,04,02,15,37,986.73
2010,04,02,15,38,986.73
2010,04,02,15,39,986.73
2010,04,02,15,40,986.73
2010,04,02,15,41,986.73
2010,04,02,15,42,986.73
2010,04,02,15,43,986.73
2010,04,02,15,44,986.73
2010,04,02,15,45,986.96
2010,04,02,15,46,986.96
2010,04,02,15,47,986.96
2010,04,02,15,48,986.96
2010,04,02,15,49,986.96
2010,04,02,15,50,986.96
2010,04,02,15,51,986.96
2010,04,02,15,52,986.96
2010,04,02,15,53,986.96
2010,04,02,15,54,986.96
2010,04,02,15,55,986.96
2010,04,02,15,56,986.96
2010,04,02,15,57,986.96
2010,04,02,15,58,986.96
2010,04,02,15,59,986.96
2010,04,02,16,00,987.23
2010,04,02,16,01,987.23
2010,04,02,16,02,987.23
2010,04,02,16,03,987.23
2010,04,02,16,04,987.23
2010,04,02,16,05,987.23
2010,04,02,16,06,987.23
2010,04,02,16,07,987.23
2010,04,02,16,08,987.23
2010,04,02,16,09,987.23
2010,04,02,16,10,987.23
2010,04,02,16,11,987.23
2010,04,02,16,12,987.23
2010,04,02,16,13,987.23
2010,04,02,16,14,987.23
2010,04,02,16,15,987.37
2010,04,02,16,16,987.37
2010,04,02,16,17,987.37
2010,04,02,16,18,987.37
2010,04,02,16,19,987.37
2010,04,02,16,20,987.37
2010,04,02,16,21,987.37
2010,04,02,16,22,987.37
2010,04,02,16,23,987.37
2010,04,02,16,24,987.37
2010,04,02,16,25,987.37
2010,04,02,16,26,987.37
2010,04,02,16,27,987.37
2010,04,02,16,28,987.37